Preview of NWS' New Version of Forecast
This preview is not operational and should not be used for support decisions.

Regional Weather Roundup (RWR)

Issued by National Weather Service (NWS)

                            
000
ASUS43 KDTX 210601
RWRMI 
MICHIGAN HOURLY REGIONAL WEATHER ROUNDUP
NATIONAL WEATHER SERVICE DETROIT/PONTIAC MI
200 AM EDT SUN APR 21 2019

NOTE: "FAIR" INDICATES FEW OR NO CLOUDS BELOW 12,000 FEET WITH NO
SIGNIFICANT WEATHER AND/OR OBSTRUCTION TO VISIBILITY.

MIZ047>049-052>055-059>063-066>070-074>076-081>083-210700-
SOUTHEAST LOWER MICHIGAN
  
CITY           SKY/WX    TMP DP  RH WIND       PRES   REMARKS
ADRIAN         CLOUDY    42  39  89 NW6       29.87R                  
6HR MIN TEMP:  42; 6HR MAX TEMP:  43; 6HR PCP: TRACE;                

ALMA           FAIR      37  33  89 CALM      29.86S                  
6HR MIN TEMP:  35; 6HR MAX TEMP:  49;                                

ANN ARBOR      LGT RAIN  42  41  96 W6        29.85R                  
BAD AXE        FAIR      39  38  97 CALM      29.84R                  
6HR MIN TEMP:  38; 6HR MAX TEMP:  42;                                

CARO           FAIR      38  38  97 CALM      29.85R                  
DETROIT CITY   CLOUDY    43  40  89 W5        29.83S                  
6HR MIN TEMP:  43; 6HR MAX TEMP:  44;                                

DETROIT        CLOUDY    43  39  86 W6        29.85R                  
6HR MIN TEMP:  43; 6HR MAX TEMP:  44;                                

FLINT          CLOUDY    43  41  93 W5        29.87R                  
6HR MIN TEMP:  42; 6HR MAX TEMP:  43; 6HR PCP:  0.09;                

GROSSE ILE     CLOUDY    43  41  91 NW5       29.84S                  
6HR MIN TEMP:  43; 6HR MAX TEMP:  44;                                

HILLSDALE      CLOUDY    41  39  91 W6        29.86R                  
6HR MIN TEMP:  41; 6HR MAX TEMP:  42; 6HR PCP:  0.04;                

HOWELL         CLOUDY    42  40  93 W5        29.86R FOG              
6HR MIN TEMP:  41; 6HR MAX TEMP:  42; 6HR PCP:  0.01;                


CITY           SKY/WX    TMP DP  RH WIND       PRES   REMARKS
JACKSON        CLOUDY    40  40 100 W3        29.86R                  
6HR MIN TEMP:  39; 6HR MAX TEMP:  42; 6HR PCP:  0.02;                

LAMBERTVILLE   CLOUDY    43  41  93 CALM      29.85S                  
6HR MIN TEMP:  42; 6HR MAX TEMP:  44;                                

LANSING        FAIR      36  35  96 CALM      29.87R FOG              
6HR MIN TEMP:  35; 6HR MAX TEMP:  44;                                

LAPEER         CLOUDY    43  43 100 NW3       29.85R                  
6HR MIN TEMP:  42; 6HR MAX TEMP:  43; 6HR PCP:  0.11;                

MASON          CLOUDY    42  40  94 CALM      29.87R                  
6HR MIN TEMP:  41; 6HR MAX TEMP:  43;                                

MONROE         CLOUDY    44  43  97 W3        29.85R                  
6HR MIN TEMP:  43; 6HR MAX TEMP:  44;                                

MT. CLEMENS    CLOUDY    43  43 100 W5        29.82S                  
6HR MIN TEMP:  43; 6HR MAX TEMP:  44;                                

PONTIAC        CLOUDY    42  42 100 W5        29.83R                  
6HR MIN TEMP:  41; 6HR MAX TEMP:  42; 6HR PCP:  0.12;                

PORT HOPE        N/A     37  36  96 SW3       29.82R                  
6HR MIN TEMP:  37; 6HR MAX TEMP:  41; 6HR PCP:  0.11;                

TRI CITIES     FAIR      40  35  83 W5        29.86R                  
6HR MIN TEMP:  37; 6HR MAX TEMP:  48;                                

MIDLAND        FAIR      35  33  92 CALM      29.85S                  
6HR MIN TEMP:  35; 6HR MAX TEMP:  51;                                

TROY           RAIN      44  40  88 W3        29.85S                  
SAGINAW HB     FAIR      41  37  87 CALM      29.86R                  
$$
MIZ043>046-050>051-056>058-064>065-071>073-077>080-210700-
SOUTHWEST LOWER MICHIGAN
  
CITY           SKY/WX    TMP DP  RH WIND       PRES   REMARKS
BATTLE CREEK   FAIR      33  31  92 SW5       29.88R WCI  29          
6HR MIN TEMP:  33; 6HR MAX TEMP:  48;                                

BENTON HARBOR  FAIR      39  35  86 SE6       29.88R WCI  35          
6HR MIN TEMP:  33; 6HR MAX TEMP:  45;                                

BIG RAPIDS     FAIR      38  35  88 CALM      29.86R                  
6HR MIN TEMP:  38; 6HR MAX TEMP:  61;                                

COLDWATER      FAIR      38  38 100 CALM      29.88S FOG              
6HR MIN TEMP:  38; 6HR MAX TEMP:  45;                                

FREMONT        CLOUDY    43  38  84 CALM      29.87R                  
6HR MIN TEMP:  43; 6HR MAX TEMP:  59;                                

HOLLAND        FAIR      41  36  82 S3        29.88R                  
6HR MIN TEMP:  41; 6HR MAX TEMP:  57;                                

GRAND RAPIDS   FAIR      38  35  89 CALM      29.87R                  
6HR MIN TEMP:  38; 6HR MAX TEMP:  52;                                

IONIA          FAIR      38  36  92 W7        29.87R WCI  33          
6HR MIN TEMP:  37; 6HR MAX TEMP:  47;                                

KALAMAZOO      FAIR      38  35  89 CALM      29.89R                  
6HR MIN TEMP:  36; 6HR MAX TEMP:  50;                                

LUDINGTON      CLOUDY    42  32  66 CALM      29.85R                  
6HR MIN TEMP:  38; 6HR MAX TEMP:  51;                                

MARSHALL         N/A     34  34 100 CALM      29.87S FOG              
6HR MIN TEMP:  34; 6HR MAX TEMP:  43;                                

MOUNT PLEASANT FAIR      41  35  80 W3        29.85R                  
6HR MIN TEMP:  40; 6HR MAX TEMP:  53;                                

MUSKEGON       MOCLDY    42  35  76 S3        29.88R                  
6HR MIN TEMP:  41; 6HR MAX TEMP:  59;                                

SOUTH HAVEN    FAIR      38  35  90 CALM      29.88S                  
$$
MIZ016>042-210700-
NORTHERN LOWER MICHIGAN
  
CITY           SKY/WX    TMP DP  RH WIND       PRES   REMARKS
ALPENA         FAIR      33  31  92 CALM      29.81S                  
6HR MIN TEMP:  33; 6HR MAX TEMP:  54;                                

BEAVER ISLAND  CLOUDY    45  14  29 W3        29.82S                  
6HR MIN TEMP:  37; 6HR MAX TEMP:  48;                                

BELLAIRE       CLOUDY    42  32  69 CALM      29.83S                  
6HR MIN TEMP:  38; 6HR MAX TEMP:  57;                                

CADILLAC       CLOUDY    45  35  69 CALM      29.84R                  
CHARLEVOIX     CLOUDY    42  32  69 CALM      29.85S                  
6HR MIN TEMP:  37; 6HR MAX TEMP:  48;                                

FRANKFORT      CLOUDY    46  29  51 CALM      29.85R                  
GAYLORD        CLOUDY    41  21  44 CALM      29.82R                  
6HR MIN TEMP:  34; 6HR MAX TEMP:  56;                                

HARBOR SPRINGS CLOUDY    41  24  50 CALM      29.81F                  
HOUGHTON LAKE  FAIR      41  34  76 W6        29.84R                  
6HR MIN TEMP:  36; 6HR MAX TEMP:  58;                                

MANISTEE       CLOUDY    43  34  70 CALM      29.85R                  
OSCODA         FAIR      29  26  86 SW6       29.83R WCI  23          
6HR MIN TEMP:  29; 6HR MAX TEMP:  54;                                

PELLSTON       CLOUDY    42  31  64 CALM      29.82S                  
6HR MIN TEMP:  35; 6HR MAX TEMP:  58;                                

ROGERS CITY    CLOUDY    44  20  38 CALM      29.82R                  
TRAVERSE CITY  MOCLDY    41  33  73 CALM      29.82F                  
6HR MIN TEMP:  38; 6HR MAX TEMP:  53;                                

$$
MIZ007>008-015-210700-
EASTERN UPPER MICHIGAN
  
CITY           SKY/WX    TMP DP  RH WIND       PRES   REMARKS
KINROSS        CLOUDY    47  22  37 W6        29.81R                  
6HR MIN TEMP:  47; 6HR MAX TEMP:  58;                                

MACKINAC ISLAN CLOUDY    42  28  57 W6        29.81S                  
6HR MIN TEMP:  42; 6HR MAX TEMP:  54;                                

NEWBERRY       CLOUDY    47  21  35 CALM      29.80R                  
6HR MIN TEMP:  46; 6HR MAX TEMP:  58;                                

S. S. MARIE    CLOUDY    47  28  47 CALM      29.79S                  
6HR MIN TEMP:  44; 6HR MAX TEMP:  58;                                

MUNISING         N/A     52  50  93 SW12G22   29.78R                  
6HR MIN TEMP:  51; 6HR MAX TEMP:  59;                                

$$
MIZ004>006-011>014-085-210700-
CENTRAL UPPER MICHIGAN
  
CITY           SKY/WX    TMP DP  RH WIND       PRES   REMARKS
MANISTIQUE     CLOUDY    47 -13   7 S3        29.80R                  
ESCANABA       CLOUDY    44  24  45 CALM      29.82R                  
6HR MIN TEMP:  42; 6HR MAX TEMP:  51;                                

MENOMINEE      CLOUDY    47  26  44 SW7       29.83R                  
6HR MIN TEMP:  45; 6HR MAX TEMP:  52;                                

SAWYER-GWINN   MOCLDY    46  18  32 S5        29.78S                  
6HR MIN TEMP:  44; 6HR MAX TEMP:  58;                                

$$
MIZ001>003-009>011-084-210700-
WESTERN UPPER MICHIGAN
  
CITY           SKY/WX    TMP DP  RH WIND       PRES   REMARKS
IRON MOUNTAIN  FAIR      45  32  60 SE3       29.78S                  
6HR MIN TEMP:  43; 6HR MAX TEMP:  62;                                

HOUGHTON       CLOUDY    49  26  41 N7        29.76S                  
6HR MIN TEMP:  44; 6HR MAX TEMP:  55;                                

COPPER HARBOR    N/A     38  32  79 N3        29.80R                  
6HR MIN TEMP:  37; 6HR MAX TEMP:  52;                                

IRONWOOD       FAIR      45  36  70 W8        29.79R                  
6HR MIN TEMP:  42; 6HR MAX TEMP:  66;                                

$$

ABBREVIATIONS USED IN REMARKS
   TC - TEMPERATURE IN CELSIUS
  WCI - WIND CHILL INDEX
   HX - HEAT INDEX
  VSB - VISIBILITY